Marshfield, WI

2:08 PM CDT on June 25, 2017 (GMT -0500)
Marshfield Municipal

Weather History for KMFI - February, 2015

Change the Weather History Date:

Wednesday, February 18, 2015

  Actual Average Record
Temperature  
Mean Temperature -6 °F -  
Max Temperature 0 °F 31 °F 55 °F (1981)
Min Temperature -13 °F 13 °F -25 °F (1929)
Degree Days  
Heating Degree Days 72    
Moisture  
Dew Point -16 °F    
Average Humidity 62    
Maximum Humidity 79    
Minimum Humidity 49    
Precipitation  
Precipitation 0.00 in - - ()
Sea Level Pressure  
Sea Level Pressure 30.12 in    
Wind  
Wind Speed 14 mph (NW)    
Max Wind Speed 23 mph    
Max Gust Speed 30 mph    
Visibility 9 miles    
Events      
Averages and records for this station are not official NWS values.
T = Trace of Precipitation, MM = Missing Value Source: NWS Daily Summary

Daily Weather History Graph

Daily Weather History Graph

Search for Another Location

Airport or City:

Trip Planner

Search our weather history database for the weather conditions in past years. The results will help you decide how hot, cold, wet, or windy it might be!

Date:

Astronomy

Feb. 18, 2015 Rise Set
Actual Time 6:56 AM CST 5:33 PM CST
Civil Twilight 6:26 AM CST 6:03 PM CST
Nautical Twilight 5:52 AM CST 6:37 PM CST
Astronomical Twilight 5:19 AM CST 7:10 PM CST
Moon 6:26 AM CST (2/18) 5:35 PM CST (2/18)
Length of Visible Light 11h 36m
Length of Day
10h 36m
Waning Crescent, 0% of the Moon is Illuminated
Feb 18
Waning Crescent
Feb 18
New
Feb 25
First Quarter
Mar 5
Full
Mar 13
Last Quarter

Hourly Weather History & Observations

Time (CST) Temp. Windchill Dew Point Humidity Pressure Visibility Wind Dir Wind Speed Gust Speed Precip Events Conditions
12:54 AM -0.0 °F -13.0 °F -6.0 °F 76% 29.90 in 5.0 mi WNW 6.9 mph - N/A   Haze
1:54 AM -0.9 °F -17.4 °F -6.0 °F 79% 29.91 in 5.0 mi NW 10.4 mph - N/A   Haze
2:54 AM -2.0 °F -19.6 °F -8.0 °F 76% 29.92 in 9.0 mi NNW 11.5 mph - N/A   Mostly Cloudy
3:54 AM -4.0 °F -23.0 °F -11.0 °F 72% 29.94 in 10.0 mi NNW 12.7 mph - N/A   Clear
4:54 AM -5.1 °F -25.9 °F -14.1 °F 65% 29.97 in 10.0 mi NW 15.0 mph - N/A   Clear
5:54 AM -7.1 °F -26.8 °F -15.0 °F 68% 30.00 in 10.0 mi NW 12.7 mph - N/A   Clear
6:54 AM -8.0 °F -28.0 °F -15.0 °F 71% 30.04 in 10.0 mi NW 12.7 mph - N/A   Clear
7:54 AM -9.0 °F -30.9 °F -15.0 °F 75% 30.07 in 10.0 mi NW 15.0 mph - N/A   Clear
8:54 AM -7.1 °F -29.8 °F -15.0 °F 68% 30.09 in 10.0 mi NW 17.3 mph - N/A   Clear
9:54 AM -6.0 °F -27.7 °F -15.0 °F 65% 30.11 in 10.0 mi NW 16.1 mph - N/A   Clear
10:54 AM -5.1 °F -30.0 °F -16.1 °F 59% 30.13 in 4.0 mi NW 23.0 mph - N/A   Haze
11:12 AM -5.1 °F -27.2 °F -16.1 °F 59% 30.02 in 8.0 mi WNW 17.3 mph - N/A   Mostly Cloudy
11:46 AM -4.0 °F -28.1 °F -18.0 °F 51% 30.03 in 10.0 mi NW 21.9 mph - N/A   Mostly Cloudy
11:54 AM -4.0 °F -27.0 °F -18.0 °F 51% 30.14 in 10.0 mi NNW 19.6 mph - N/A   Mostly Cloudy
12:54 PM -4.0 °F -27.0 °F -18.9 °F 49% 30.14 in 10.0 mi NW 19.6 mph 25.3 mph N/A   Mostly Cloudy
1:54 PM -2.9 °F -26.7 °F -17.0 °F 51% 30.16 in 8.0 mi NW 21.9 mph 29.9 mph N/A   Partly Cloudy
2:51 PM -2.2 °F -25.7 °F -16.6 °F 50% 30.06 in 10.0 mi WNW 21.9 mph - N/A   Mostly Cloudy
2:54 PM -2.9 °F -26.1 °F -17.0 °F 51% 30.17 in 10.0 mi WNW 20.7 mph - N/A   Mostly Cloudy
3:30 PM -4.0 °F -26.4 °F -14.1 °F 62% 30.08 in 3.0 mi WNW 18.4 mph 26.5 mph N/A   Haze
3:44 PM -4.0 °F -25.2 °F -14.1 °F 62% 30.08 in 2.5 mi WNW 16.1 mph 23.0 mph N/A   Haze
3:54 PM -4.0 °F -26.4 °F -15.0 °F 59% 30.20 in 5.0 mi NW 18.4 mph - N/A   Haze
4:41 PM -4.0 °F -26.4 °F -17.0 °F 54% 30.10 in 10.0 mi WNW 18.4 mph 24.2 mph N/A   Overcast
4:54 PM -5.1 °F -28.4 °F -16.1 °F 59% 30.22 in 9.0 mi NW 19.6 mph 26.5 mph N/A   Scattered Clouds
5:05 PM -4.0 °F -26.4 °F -16.1 °F 56% 30.11 in 8.0 mi WNW 18.4 mph - N/A   Mostly Cloudy
5:34 PM -5.1 °F -27.2 °F -18.0 °F 54% 30.12 in 10.0 mi WNW 17.3 mph - N/A   Scattered Clouds
5:54 PM -6.0 °F -28.4 °F -18.0 °F 56% 30.25 in 10.0 mi NW 17.3 mph - N/A   Partly Cloudy
6:54 PM -7.1 °F -25.9 °F -18.0 °F 59% 30.27 in 10.0 mi WNW 11.5 mph - N/A   Clear
7:54 PM -8.0 °F -25.0 °F -18.9 °F 59% 30.29 in 10.0 mi WNW 9.2 mph - N/A   Clear
8:54 PM -9.0 °F -26.4 °F -17.0 °F 68% 30.30 in 10.0 mi WNW 9.2 mph - N/A   Clear
9:54 PM -9.9 °F -23.4 °F -18.0 °F 68% 30.31 in 10.0 mi WNW 5.8 mph - N/A   Clear
10:54 PM -13.0 °F -31.3 °F -20.0 °F 71% 30.32 in 10.0 mi NW 9.2 mph - N/A   Clear
11:54 PM -11.9 °F -28.7 °F -18.9 °F 71% 30.32 in 10.0 mi NW 8.1 mph - N/A   Clear